sat.trackr.live / text

‹ back to catalog

ONEWEB-0576

NORAD 56065 · 2023-043V

PAYLOAD ACTIVE UNKNOWN

§ Identity

Operator
Country
UK
Launch date
2023-03-26
Launch site
SRILR
Launch vehicle
Mass (kg)
RCS (m²)

Purposes: comms

External: N2YO · Heavens-Above · Gunter

§ Orbital elements

Epoch: 2026-09-20T03:12:39.936384Z

Period
109.37 min
Inclination
87.9156°
Eccentricity
0.0002135
Mean motion
13.16595298 rev/d
Perigee alt
1,196.1 km
Apogee alt
1,199.4 km
Semi-major
7,575.9 km
B*
-6.1721e-6
RAAN
209.9266°
Arg perigee
81.6360°
Mean anomaly
278.5013°
Rev number
17,145

§ Raw data

ONEWEB-05761 56065U 23043V   26263.13379556  .00000010  00000+0 -61721-5 0  99952 56065  87.9156 209.9266 0002135  81.6360 278.5013 13.16595298171452

JSON: /api/v1/satellites/56065 · /tle

For live sub-satellite position, see the globe view (requires WebGL).

§ Visibility from observer

Set your observer location to see the next 7 days of passes ≥ 10°. The values pass through the URL so the page stays shareable.

No JS? Fill the form by hand. The geolocation button needs JavaScript.